Weather History for Hayward, WI

Change the Weather History Date:

Saturday, February 1, 2014

  Actual Average Record
Temperature  
Mean Temperature 2 °F -  
Max Temperature 15 °F 33 °F 36 °F (2005)
Min Temperature -11 °F 3 °F -21 °F (1970)
Degree Days  
Heating Degree Days 63    
Moisture  
Dew Point -1 °F    
Average Humidity 70    
Maximum Humidity 83    
Minimum Humidity 64    
Precipitation  
Precipitation 0.00 in - - ()
Sea Level Pressure  
Sea Level Pressure 30.04 in    
Wind  
Wind Speed 4 mph (SSW)    
Max Wind Speed 7 mph    
Max Gust Speed -    
Visibility 9 miles    
Events Snow    
Averages and records for this station are not official NWS values.
T = Trace of Precipitation, MM = Missing Value Source: NWS Daily Summary

Daily Weather History Graph

Daily Weather History Graph

Search for Another Location

Airport:

Trip Planner

Search our weather history database for the weather conditions in past years. The results will help you decide how hot, cold, wet, or windy it might be!

Date:

Astronomy

Feb. 01, 2014 Rise Set
Actual Time 7:28 AM CST 5:11 PM CST
Civil Twilight 6:56 AM CST 5:43 PM CST
Nautical Twilight 6:20 AM CST 6:19 PM CST
Astronomical Twilight 5:45 AM CST 6:54 PM CST
Moon 8:08 AM CST (2/1) 7:58 PM CST (2/1)
Length of Visible Light 10h 47m
Length of Day
9h 43m
Waxing Crescent, 5% of the Moon is Illuminated
Feb 1
Waxing Crescent
Feb 6
First Quarter
Feb 14
Full
Feb 22
Last Quarter
Mar 1
New

Hourly Weather History & Observations

Time (CST) Temp. Windchill Dew Point Humidity Pressure Visibility Wind Dir Wind Speed Gust Speed Precip Events Conditions
12:53 AM -11.9 °F -21.5 °F -18.9 °F 71% 30.09 in 10.0 mi South 3.5 mph - N/A   Clear
1:53 AM -5.1 °F -13.6 °F -11.9 °F 72% 30.07 in 10.0 mi SSW 3.5 mph - N/A   Clear
2:53 AM -6.0 °F - -9.9 °F 83% 30.06 in 10.0 mi Calm Calm - N/A   Overcast
3:53 AM -0.0 °F -11.6 °F -7.1 °F 72% 30.05 in 10.0 mi South 5.8 mph - N/A   Overcast
4:53 AM 1.9 °F -7.6 °F -5.1 °F 72% 30.04 in 10.0 mi South 4.6 mph - N/A   Overcast
5:53 AM 1.9 °F -9.2 °F -5.1 °F 72% 30.03 in 10.0 mi South 5.8 mph - N/A   Overcast
6:53 AM 1.9 °F -10.6 °F -5.1 °F 72% 30.01 in 10.0 mi SSE 6.9 mph - N/A   Overcast
7:53 AM 3.9 °F -3.4 °F -4.0 °F 70% 30.02 in 10.0 mi WSW 3.5 mph - N/A   Overcast
8:53 AM 3.9 °F -6.9 °F -4.0 °F 70% 30.02 in 10.0 mi South 5.8 mph - N/A   Overcast
9:53 AM 6.1 °F -5.6 °F -2.9 °F 67% 30.01 in 6.0 mi South 6.9 mph - 0.00 in Snow Light Snow
10:53 AM 8.1 °F -0.5 °F -0.0 °F 70% 30.02 in 10.0 mi Variable 4.6 mph - 0.00 in   Overcast
11:06 AM 8.1 °F 1.4 °F -0.0 °F 70% 29.92 in 10.0 mi SSW 3.5 mph - N/A   Overcast
11:24 AM 9.0 °F -0.9 °F 1.0 °F 70% 29.91 in 10.0 mi South 5.8 mph - N/A   Overcast
11:53 AM 10.0 °F 0.4 °F 1.9 °F 70% 30.00 in 10.0 mi South 5.8 mph - N/A   Overcast
12:48 PM 12.2 °F 1.7 °F 3.2 °F 67% 29.89 in 4.0 mi SW 6.9 mph - 0.00 in Snow Light Snow
12:53 PM 12.0 °F 4.1 °F 3.0 °F 67% 29.99 in 4.0 mi Variable 4.6 mph - 0.00 in Snow Light Snow
1:53 PM 12.9 °F 3.8 °F 5.0 °F 71% 30.00 in 4.0 mi Variable 5.8 mph - 0.00 in Snow Light Snow
2:53 PM 15.1 °F 6.4 °F 5.0 °F 64% 30.01 in 10.0 mi West 5.8 mph - 0.00 in   Overcast
3:53 PM 15.1 °F 9.4 °F 5.0 °F 64% 30.02 in 10.0 mi Variable 3.5 mph - N/A   Overcast
4:53 PM 12.9 °F 6.9 °F 3.9 °F 67% 30.04 in 10.0 mi West 3.5 mph - N/A   Clear
5:27 PM 10.0 °F - 3.0 °F 73% 29.96 in 10.0 mi Calm Calm - N/A   Mostly Cloudy
5:53 PM 10.0 °F - 3.0 °F 73% 30.06 in 10.0 mi Calm Calm - N/A   Overcast
6:53 PM 12.9 °F 6.9 °F 3.9 °F 67% 30.09 in 10.0 mi Variable 3.5 mph - N/A   Overcast
7:53 PM 12.9 °F 6.9 °F 3.0 °F 65% 30.10 in 10.0 mi Variable 3.5 mph - N/A   Overcast
8:53 PM 10.9 °F 2.9 °F 1.9 °F 67% 30.12 in 10.0 mi Variable 4.6 mph - N/A   Overcast
9:11 PM 10.0 °F - 1.0 °F 67% 30.03 in 10.0 mi Calm Calm - N/A   Scattered Clouds
9:53 PM 8.1 °F 1.4 °F -0.0 °F 70% 30.15 in 10.0 mi Variable 3.5 mph - N/A   Clear
10:53 PM 5.0 °F - -2.9 °F 70% 30.17 in 10.0 mi Calm Calm - N/A   Clear
11:53 PM -0.0 °F - -6.0 °F 76% 30.20 in 10.0 mi Calm Calm - N/A   Clear